Location: Unspecified
(0.0000°N, 0.0000°E)
Time: 05:52:45
(UTC+00:00)

Tiros 1 despin weight - Pass Details

Date: 06 October 2020
Orbit: 594 x 641 km, 48.2° (Epoch: 28 October)

Event Time Altitude Azimuth Distance (km) Brightness Sun altitude
Rises 16:14:22 0° 352° (N) 2,901 ? 23.3°
Reaches altitude 10° 16:17:38 10° 16° (NNE) 2,006 ? 22.5°
Maximum altitude 16:20:12 15° 50° (NE) 1,723 ? 21.8°
Drops below altitude 10° 16:22:46 10° 84° (E) 2,019 ? 21.2°
Sets 16:26:04 0° 108° (ESE) 2,934 ? 20.4°
